When you browse on this site, cookies collect data to enhance your experience and personalize the content and advertising you see.
Visit our Privacy Policy to learn more. By continuing to use the site, you agree to this use of cookies and data.
  • în România
  • Lista ţărilor
  • Pe 7 zile
  • Temperatura apei
  • Hartă satelitară
  • Meteo pe hartă
  • Widget-uri
  • user-avatar
    Intrare

    Meteo pe oră la Maracaibo

    Astăzi, 23 Ianuarie, Miercuri

    Timp Temperatura Precipitaţii Vânt Presiune Umiditate
    00:00 +28°C° 0 mm 6 m/s 755 mmHg 62%
    01:00 +27°C° 0 mm 6 m/s 755 mmHg 63%
    02:00 +27°C° 0 mm 5 m/s 755 mmHg 63%
    03:00 +27°C° 0 mm 5 m/s 755 mmHg 64%
    04:00 +27°C° 0 mm 4 m/s 755 mmHg 65%
    05:00 +27°C° 0 mm 4 m/s 755 mmHg 64%
    06:00 +27°C° 0 mm 4 m/s 755 mmHg 63%
    07:00 +28°C° 0 mm 3 m/s 756 mmHg 62%
    08:00 +29°C° 0 mm 3 m/s 756 mmHg 57%
    09:00 +30°C° 0 mm 3 m/s 756 mmHg 51%
    10:00 +32°C° 0 mm 2 m/s 756 mmHg 46%
    11:00 +34°C° 0 mm 2 m/s 755 mmHg 43%
    12:00 +35°C° 0 mm 2 m/s 754 mmHg 40%
    13:00 +36°C° 0 mm 2 m/s 753 mmHg 38%
    14:00 +36°C° 0 mm 3 m/s 753 mmHg 39%
    15:00 +36°C° 0 mm 4 m/s 752 mmHg 41%
    16:00 +36°C° 0 mm 5 m/s 751 mmHg 42%
    17:00 +34°C° 0 mm 6 m/s 752 mmHg 47%
    18:00 +33°C° 0 mm 6 m/s 752 mmHg 51%
    19:00 +32°C° 0 mm 7 m/s 753 mmHg 55%
    20:00 +30°C° 0 mm 7 m/s 753 mmHg 57%
    21:00 +30°C° 0 mm 6 m/s 754 mmHg 59%
    22:00 +29°C° 0 mm 6 m/s 754 mmHg 60%
    23:00 +29°C° 0 mm 5 m/s 754 mmHg 61%

    Mâine, 24 Ianuarie, Joi

    Timp Temperatura Precipitaţii Vânt Presiune Umiditate
    00:00 +28°C° 0 mm 5 m/s 754 mmHg 62%
    01:00 +28°C° 0 mm 4 m/s 753 mmHg 63%
    02:00 +28°C° 0 mm 4 m/s 753 mmHg 64%
    03:00 +28°C° 0 mm 3 m/s 753 mmHg 64%
    04:00 +27°C° 0 mm 3 m/s 753 mmHg 65%
    05:00 +28°C° 0 mm 3 m/s 753 mmHg 65%
    06:00 +28°C° 0 mm 3 m/s 754 mmHg 65%
    07:00 +28°C° 0 mm 2 m/s 754 mmHg 65%
    08:00 +29°C° 0 mm 2 m/s 754 mmHg 60%
    09:00 +31°C° 0 mm 2 m/s 755 mmHg 54%
    10:00 +32°C° 0 mm 2 m/s 755 mmHg 49%
    11:00 +35°C° 0 mm 2 m/s 754 mmHg 46%
    12:00 +36°C° 0 mm 2 m/s 753 mmHg 43%
    13:00 +37°C° 0 mm 2 m/s 752 mmHg 40%
    14:00 +36°C° 0 mm 3 m/s 752 mmHg 42%
    15:00 +36°C° 0 mm 4 m/s 751 mmHg 44%
    16:00 +35°C° 0 mm 5 m/s 751 mmHg 46%
    17:00 +34°C° 0 mm 5 m/s 751 mmHg 51%
    18:00 +32°C° 0 mm 6 m/s 752 mmHg 56%
    19:00 +30°C° 0 mm 6 m/s 752 mmHg 61%
    20:00 +30°C° 0 mm 6 m/s 753 mmHg 61%
    21:00 +30°C° 0 mm 6 m/s 753 mmHg 61%
    22:00 +30°C° 0 mm 6 m/s 754 mmHg 61%
    23:00 +29°C° 0 mm 5 m/s 754 mmHg 62%

    Poimâine, 25 Ianuarie, Vineri

    Timp Temperatura Precipitaţii Vânt Presiune Umiditate
    00:00 +29°C° 0 mm 4 m/s 754 mmHg 63%
    01:00 +28°C° 0 mm 3 m/s 753 mmHg 64%
    02:00 +28°C° 0 mm 3 m/s 753 mmHg 65%
    03:00 +28°C° 0 mm 3 m/s 753 mmHg 66%
    04:00 +27°C° 0 mm 3 m/s 753 mmHg 68%
    05:00 +27°C° 0 mm 3 m/s 753 mmHg 67%
    06:00 +27°C° 0 mm 3 m/s 754 mmHg 67%
    07:00 +28°C° 0 mm 3 m/s 754 mmHg 67%
    08:00 +29°C° 0 mm 2 m/s 754 mmHg 61%
    09:00 +31°C° 0 mm 2 m/s 755 mmHg 56%
    10:00 +32°C° 0 mm 2 m/s 755 mmHg 50%
    11:00 +34°C° 0 mm 2 m/s 754 mmHg 47%
    12:00 +35°C° 0 mm 2 m/s 753 mmHg 44%
    13:00 +36°C° 0 mm 2 m/s 752 mmHg 42%
    14:00 +36°C° 0 mm 3 m/s 752 mmHg 44%
    15:00 +35°C° 0 mm 4 m/s 751 mmHg 46%
    16:00 +35°C° 0 mm 5 m/s 750 mmHg 47%
    17:00 +34°C° 0 mm 5 m/s 751 mmHg 51%
    18:00 +32°C° 0 mm 6 m/s 751 mmHg 55%
    19:00 +30°C° 0 mm 6 m/s 752 mmHg 59%
    20:00 +30°C° 0 mm 6 m/s 753 mmHg 60%
    21:00 +29°C° 0 mm 5 m/s 753 mmHg 61%
    22:00 +29°C° 0 mm 5 m/s 754 mmHg 62%
    23:00 +29°C° 0 mm 5 m/s 754 mmHg 62%

    26 Ianuarie, Sâmbătă

    Timp Temperatura Precipitaţii Vânt Presiune Umiditate
    00:00 +28°C° 0 mm 4 m/s 753 mmHg 63%
    01:00 +28°C° 0 mm 4 m/s 753 mmHg 63%
    02:00 +28°C° 0 mm 3 m/s 753 mmHg 65%
    03:00 +27°C° 0 mm 3 m/s 753 mmHg 66%
    04:00 +27°C° 0 mm 3 m/s 753 mmHg 67%
    05:00 +27°C° 0 mm 3 m/s 753 mmHg 67%
    06:00 +27°C° 0 mm 3 m/s 754 mmHg 67%
    07:00 +27°C° 0 mm 3 m/s 754 mmHg 67%
    08:00 +28°C° 0 mm 2 m/s 754 mmHg 61%
    09:00 +30°C° 0 mm 2 m/s 755 mmHg 56%
    10:00 +32°C° 0 mm 2 m/s 755 mmHg 50%
    11:00 +34°C° 0 mm 2 m/s 754 mmHg 48%
    12:00 +35°C° 0 mm 2 m/s 753 mmHg 45%
    13:00 +36°C° 0 mm 2 m/s 752 mmHg 43%
    14:00 +35°C° 0 mm 3 m/s 751 mmHg 45%
    15:00 +34°C° 0 mm 4 m/s 751 mmHg 48%
    16:00 +34°C° 0 mm 5 m/s 750 mmHg 50%
    17:00 +33°C° 0 mm 5 m/s 751 mmHg 54%
    18:00 +32°C° 0 mm 5 m/s 751 mmHg 58%
    19:00 +30°C° 0 mm 6 m/s 752 mmHg 61%
    20:00 +29°C° 0 mm 6 m/s 752 mmHg 62%
    21:00 +29°C° 0 mm 6 m/s 753 mmHg 63%
    22:00 +29°C° 0 mm 5 m/s 753 mmHg 64%
    23:00 +28°C° 0 mm 5 m/s 753 mmHg 64%

    27 Ianuarie, Duminică

    Timp Temperatura Precipitaţii Vânt Presiune Umiditate
    00:00 +28°C° 0 mm 5 m/s 753 mmHg 64%
    01:00 +28°C° 0 mm 4 m/s 753 mmHg 64%
    02:00 +27°C° 0 mm 4 m/s 752 mmHg 66%
    03:00 +27°C° 0 mm 3 m/s 752 mmHg 67%
    04:00 +27°C° 0 mm 3 m/s 752 mmHg 68%
    05:00 +27°C° 0 mm 2 m/s 753 mmHg 68%
    06:00 +27°C° 0 mm 2 m/s 753 mmHg 69%
    07:00 +27°C° 0 mm 2 m/s 753 mmHg 69%
    08:00 +29°C° 0 mm 2 m/s 754 mmHg 62%
    09:00 +31°C° 0 mm 1 m/s 754 mmHg 56%
    10:00 +32°C° 0 mm 1 m/s 754 mmHg 49%
    11:00 +33°C° 0 mm 1 m/s 753 mmHg 47%
    12:00 +35°C° 0 mm 2 m/s 752 mmHg 44%
    13:00 +36°C° 0 mm 2 m/s 751 mmHg 41%
    14:00 +36°C° 0 mm 3 m/s 751 mmHg 43%
    15:00 +35°C° 0 mm 4 m/s 750 mmHg 46%
    16:00 +35°C° 0 mm 5 m/s 750 mmHg 48%
    17:00 +33°C° 0 mm 5 m/s 750 mmHg 53%
    18:00 +32°C° 0 mm 6 m/s 751 mmHg 59%
    19:00 +30°C° 0 mm 6 m/s 752 mmHg 65%
    20:00 +29°C° 0 mm 6 m/s 752 mmHg 66%
    21:00 +29°C° 0 mm 6 m/s 753 mmHg 68%
    22:00 +29°C° 0 mm 6 m/s 753 mmHg 69%
    23:00 +28°C° 0 mm 5 m/s 753 mmHg 69%

    28 Ianuarie, Luni

    Timp Temperatura Precipitaţii Vânt Presiune Umiditate
    00:00 +28°C° 0 mm 5 m/s 753 mmHg 69%
    01:00 +28°C° 0 mm 4 m/s 752 mmHg 68%
    02:00 +28°C° 0 mm 4 m/s 752 mmHg 69%
    03:00 +27°C° 0 mm 3 m/s 752 mmHg 69%
    04:00 +27°C° 0 mm 3 m/s 752 mmHg 70%
    05:00 +27°C° 0 mm 3 m/s 752 mmHg 69%
    06:00 +27°C° 0 mm 2 m/s 752 mmHg 69%
    07:00 +27°C° 0 mm 2 m/s 753 mmHg 69%
    08:00 +29°C° 0 mm 2 m/s 753 mmHg 63%
    09:00 +31°C° 0 mm 2 m/s 753 mmHg 57%
    10:00 +33°C° 0 mm 1 m/s 753 mmHg 50%
    11:00 +34°C° 0 mm 2 m/s 753 mmHg 47%
    12:00 +35°C° 0 mm 2 m/s 752 mmHg 44%
    13:00 +36°C° 0 mm 2 m/s 751 mmHg 41%
    14:00 +36°C° 0 mm 3 m/s 750 mmHg 43%
    15:00 +35°C° 0 mm 4 m/s 750 mmHg 45%
    16:00 +35°C° 0 mm 4 m/s 749 mmHg 47%
    17:00 +33°C° 0 mm 5 m/s 750 mmHg 53%
    18:00 +32°C° 0 mm 5 m/s 750 mmHg 58%
    19:00 +30°C° 0 mm 5 m/s 751 mmHg 64%
    20:00 +29°C° 0 mm 5 m/s 751 mmHg 66%
    21:00 +29°C° 0 mm 5 m/s 752 mmHg 67%
    22:00 +29°C° 0 mm 5 m/s 752 mmHg 69%
    23:00 +28°C° 0 mm 4 m/s 752 mmHg 69%
    Arată mai mult